Theta_e
289 289 290 291 290 289 289 289 288 287 288 287 285 285 287 286 283 280 286 288 285 287 290 292 293 294 294 295 296 297 297 296 294 293 290 288 288 287 288 289 289 289 290 292 293 293 294 292 291 290 289 289 288 287 287 288 287 286 286 285 285 285 285 284 284 285 285 284 284 283 283 283 283 282 281 281 280 279 279 278 278 277 277 276 275 274 274
288 289 289 290 288 288 288 288 289 289 289 288 288 287 288 287 285 287 288 288 287 290 291 293 294 296 296 296 297 296 294 294 295 295 294 294 291 287 288 290 291 292 292 293 293 294 295 294 292 290 289 289 289 289 288 287 286 286 285 285 285 285 285 285 285 285 284 283 283 283 282 282 282 281 281 280 279 278 278 277 277 276 275 275 274 274 273
285 288 289 289 288 287 286 288 288 288 288 288 288 288 288 288 287 288 288 287 286 292 295 294 296 296 296 295 293 294 295 295 295 294 293 291 290 289 289 290 291 291 292 292 292 292 291 291 290 290 291 292 292 290 288 286 285 285 285 285 285 285 285 285 285 284 284 283 283 282 282 282 281 280 280 278 278 277 276 276 275 275 274 274 273 273 273
282 287 286 286 288 287 285 285 286 286 286 285 287 286 288 287 285 287 287 285 285 291 294 294 294 294 294 293 293 294 295 293 289 288 288 288 288 288 289 289 289 289 289 290 290 290 291 291 291 291 293 294 293 290 288 285 284 284 284 285 285 285 285 285 285 284 284 283 282 282 281 281 280 279 278 277 276 276 275 274 274 273 273 273 273 272 272
280 286 286 285 285 285 281 282 285 287 288 288 289 290 290 289 289 286 283 285 291 292 291 290 291 292 292 293 294 292 287 285 286 286 286 287 287 287 288 287 287 287 287 288 288 289 291 292 293 294 294 293 292 291 288 286 282 282 283 284 284 284 284 284 284 283 283 282 281 281 280 280 279 278 277 276 276 275 274 274 273 272 273 273 272 272 271
279 284 284 285 281 274 277 288 290 290 287 288 286 286 288 290 291 288 289 286 285 284 285 284 283 283 285 286 288 284 284 284 284 284 285 286 286 287 287 287 286 287 287 287 288 288 289 290 290 291 291 290 290 290 287 283 281 282 282 282 283 283 283 283 282 282 282 281 281 280 280 279 278 277 276 276 276 275 274 273 272 272 272 272 271 271 270
277 281 281 277 272 274 285 289 291 291 291 291 289 289 291 286 279 280 285 283 281 281 283 283 282 282 283 284 284 283 283 284 283 283 283 284 285 285 285 285 285 286 286 286 287 287 288 288 289 290 290 290 288 288 286 282 280 280 280 281 281 282 281 281 281 281 281 281 280 280 279 278 276 276 275 275 275 274 273 273 272 272 271 271 270 270 270
281 279 277 271 272 283 283 289 287 285 286 284 284 284 281 275 278 277 281 281 280 280 281 282 283 281 282 283 283 283 282 283 283 282 282 283 284 284 285 284 285 285 285 285 285 286 287 288 288 288 288 288 286 287 285 283 279 279 280 280 280 280 280 280 280 280 280 280 279 278 277 276 275 275 275 275 274 273 273 272 272 272 271 271 270 269 269
275 277 277 276 283 282 282 282 279 281 278 278 278 276 276 276 277 279 280 280 280 279 280 281 282 281 282 283 282 283 282 283 283 283 283 283 284 284 284 285 285 285 285 285 285 286 286 287 287 288 286 284 284 284 283 279 277 276 277 278 279 279 279 279 280 280 279 279 278 277 276 275 275 274 274 274 274 273 272 272 271 271 270 270 270 269 269
283 276 275 276 276 273 276 274 280 284 282 282 282 281 277 277 278 281 281 278 279 278 279 279 281 281 278 276 278 281 282 283 283 283 284 284 284 284 284 285 285 285 285 285 286 286 286 286 287 286 282 281 280 280 279 275 275 275 276 278 278 278 279 279 279 278 279 278 277 276 275 275 274 275 274 274 274 273 272 271 271 270 270 270 270 269 269
278 275 272 272 271 274 274 275 278 281 282 281 282 279 275 277 277 280 280 278 278 278 278 279 280 277 273 274 277 281 282 283 284 283 283 284 284 284 284 284 284 285 285 285 285 286 286 286 287 286 283 280 280 280 277 274 274 274 276 277 277 277 277 276 275 276 277 277 277 276 275 275 275 274 273 273 273 272 272 272 271 270 270 269 269 269 269
277 275 271 269 273 271 274 276 279 280 281 282 283 274 272 276 277 280 280 278 279 278 279 280 278 276 272 274 277 282 283 284 284 283 283 284 284 285 285 285 286 286 286 285 285 285 285 286 287 286 284 282 281 280 277 273 273 276 277 277 276 275 275 275 274 275 276 276 276 275 275 274 274 274 274 272 271 271 271 271 270 270 269 269 268 268 269
274 274 272 275 276 276 278 278 281 279 281 281 274 269 271 278 279 281 280 279 279 279 279 279 276 278 280 280 282 283 283 283 283 284 284 284 285 285 285 285 286 286 286 286 285 285 286 287 287 286 284 282 282 280 276 275 276 278 277 276 276 276 275 275 274 274 274 275 275 275 275 274 274 274 273 272 271 271 270 270 269 269 268 268 268 268 268
270 271 270 270 275 279 278 279 280 281 275 265 265 274 280 280 280 281 280 279 279 280 279 279 279 280 281 281 282 282 282 282 282 283 283 284 284 285 285 285 285 285 285 285 285 286 286 287 287 287 284 282 282 280 278 278 280 278 276 276 276 276 276 276 276 275 275 275 275 275 274 274 273 272 272 271 271 270 270 269 269 268 268 268 267 267 267
270 269 268 268 266 276 278 279 277 279 269 269 276 277 280 281 281 281 280 280 279 280 279 280 280 280 281 281 281 282 281 281 281 281 282 282 282 282 283 283 284 285 284 284 285 285 286 287 287 287 285 283 282 281 280 282 281 277 275 275 275 276 276 276 275 275 275 275 275 274 273 273 272 271 270 270 270 270 269 269 268 268 267 267 267 266 266
267 268 267 268 274 275 280 277 270 275 275 278 279 279 278 282 281 280 279 279 280 279 279 279 280 281 280 280 280 280 280 280 280 281 281 281 281 282 282 283 283 284 283 284 284 285 286 286 287 287 285 284 284 282 282 284 280 276 274 274 275 275 275 275 275 275 274 274 274 273 273 272 272 270 269 269 269 269 269 268 268 267 267 266 266 266 265
270 267 271 275 278 279 280 279 277 278 279 279 279 281 280 279 278 278 278 278 278 279 279 279 279 278 278 278 278 277 278 278 279 279 279 280 280 280 281 281 283 283 282 282 283 284 285 286 286 286 286 284 284 284 285 284 280 277 275 275 274 275 275 274 274 274 273 273 273 273 272 272 271 270 269 269 268 268 268 268 268 267 266 266 266 265 265
275 276 276 277 277 276 276 278 279 278 278 279 281 281 280 279 278 278 277 277 277 278 277 276 275 275 275 276 276 276 277 278 278 279 279 279 280 280 280 281 281 282 282 282 282 282 283 284 285 286 286 286 284 285 286 284 280 278 275 274 274 275 274 274 274 273 272 272 272 272 272 272 272 271 269 269 268 268 268 267 267 267 266 266 266 266 265
270 264 273 273 273 275 276 276 277 278 278 278 279 278 278 278 278 277 277 276 277 277 276 274 274 274 275 274 275 275 275 276 276 276 277 277 278 278 278 279 280 280 280 280 280 280 280 282 283 285 285 286 286 286 286 285 281 278 276 276 276 275 274 274 273 272 272 272 271 271 271 271 271 271 270 269 269 268 268 267 267 267 266 265 266 266 266
270 269 274 275 276 276 277 276 275 275 274 275 276 277 277 276 276 276 275 275 275 275 274 274 274 273 274 273 273 274 274 274 275 276 276 276 276 277 277 278 278 278 278 278 278 279 279 281 282 283 284 285 286 286 286 285 280 277 276 276 276 275 274 273 272 271 272 270 270 270 270 270 270 270 269 269 269 269 267 267 267 267 266 265 266 266 266
272 274 275 275 276 275 275 276 275 274 274 275 275 275 274 273 272 273 274 274 274 274 273 273 273 272 272 273 272 272 273 273 273 274 275 275 275 275 275 275 276 275 275 276 277 277 278 279 280 281 282 283 285 285 286 285 279 277 276 275 274 274 273 271 270 270 271 270 270 270 270 270 270 270 269 269 269 270 270 270 269 269 267 266 267 268 268
268 269 272 274 269 269 274 275 275 274 274 273 273 272 271 271 271 271 271 272 272 272 272 272 271 270 271 271 271 270 271 271 271 272 273 273 272 273 273 273 273 273 274 274 274 275 275 276 277 278 280 281 283 285 285 283 278 276 276 275 274 273 272 271 270 269 269 269 269 269 269 269 269 268 270 272 271 269 269 272 273 274 273 268 269 269 269
268 273 275 276 275 274 275 276 275 274 274 271 271 270 270 270 271 271 270 269 269 269 270 271 270 269 269 269 270 269 269 270 271 271 271 270 270 271 271 271 271 272 272 272 272 271 272 274 274 275 276 277 279 280 282 281 278 277 276 275 274 273 271 270 269 269 269 268 268 268 268 268 268 267 266 269 273 274 272 272 273 274 275 274 274 274 271
275 276 276 277 275 274 276 277 276 273 272 270 269 269 270 270 269 269 268 268 268 268 269 269 269 268 268 268 268 267 268 269 269 269 269 269 269 269 269 269 269 269 269 269 269 269 270 271 271 271 272 273 274 275 276 278 278 276 276 275 275 274 272 270 269 268 268 268 267 267 267 267 267 266 266 265 267 273 274 273 274 275 276 275 275 275 275
274 278 277 275 274 274 275 275 273 272 269 269 268 268 269 268 268 268 267 267 268 267 266 266 267 268 267 267 267 267 267 267 268 268 268 268 268 267 267 266 266 266 266 267 266 267 267 267 267 268 268 269 271 272 274 275 276 276 276 275 275 275 273 270 269 268 267 267 266 266 266 266 265 266 265 265 265 266 270 274 275 276 276 276 276 276 275
276 275 273 271 270 271 273 272 272 269 267 268 267 268 268 268 267 267 267 267 266 266 265 265 265 266 267 266 266 266 265 265 266 266 265 264 264 264 264 263 264 264 264 264 263 264 264 264 265 265 266 267 269 270 271 272 273 274 275 276 275 275 274 271 269 268 267 267 266 266 266 266 266 265 266 266 266 267 267 268 271 274 276 277 277 276 276
268 269 269 271 273 274 270 267 267 267 267 267 267 267 267 267 267 266 265 265 264 264 264 265 265 266 265 265 264 264 264 264 264 263 263 262 262 262 262 262 262 262 262 261 261 262 263 263 263 263 264 265 266 268 269 270 271 272 273 274 275 273 271 270 270 268 268 267 266 266 266 265 265 266 266 267 267 267 267 267 268 269 270 273 276 276 273
266 265 266 264 266 265 265 266 266 266 266 266 266 265 265 265 263 262 261 262 263 263 264 264 263 262 262 263 262 262 262 261 260 261 260 260 261 261 261 261 260 260 260 260 260 261 261 261 261 262 262 264 265 267 268 270 271 272 274 274 274 274 274 271 270 269 268 267 267 266 266 265 266 266 267 267 267 267 268 269 269 269 270 271 272 275 276
262 263 263 263 264 264 265 264 264 264 264 265 264 264 262 261 260 260 261 262 263 262 262 263 262 262 262 261 261 260 260 259 259 259 259 259 260 259 259 259 259 259 259 259 259 260 260 260 261 261 263 265 266 268 270 270 270 271 272 274 275 275 274 272 270 270 268 267 266 266 267 266 266 266 267 267 268 268 269 269 269 269 269 270 270 271 274
260 261 261 261 262 262 262 261 262 262 262 262 262 261 261 260 259 260 261 261 261 261 261 261 261 260 260 259 259 259 258 258 258 258 258 258 258 258 258 258 258 258 258 258 258 259 260 260 261 262 263 265 266 267 268 269 270 270 271 272 274 274 274 273 270 268 268 267 266 267 266 266 266 266 267 267 268 268 268 268 269 268 268 269 270 269 269
259 259 258 259 259 260 259 259 260 260 261 261 261 260 260 260 259 259 259 260 260 259 260 259 259 258 258 258 258 258 258 257 257 257 257 257 257 258 258 258 257 256 257 258 259 260 260 261 262 262 264 265 266 267 268 269 270 271 272 273 274 274 274 274 272 269 267 266 266 266 266 266 266 266 267 267 267 268 268 268 268 268 268 268 268 268 268
256 256 256 258 258 257 257 258 258 259 259 259 258 257 258 258 257 257 257 257 258 258 257 257 256 256 257 257 257 257 256 256 256 256 257 257 257 257 258 258 258 259 259 259 260 260 261 262 262 264 265 266 267 267 268 268 269 269 270 270 273 273 273 274 271 269 267 266 266 266 266 266 266 267 266 267 267 268 268 267 267 267 268 267 267 267 268
254 255 256 255 255 255 255 256 256 256 257 256 257 257 257 258 257 257 257 257 257 256 256 256 256 256 256 256 256 256 256 256 256 256 256 256 256 257 258 259 259 259 259 260 261 262 263 263 264 266 267 267 267 268 268 269 269 270 271 272 272 273 271 273 271 269 267 266 265 265 266 266 266 267 266 267 267 267 267 266 266 266 266 266 266 267 267
254 253 255 255 254 254 254 254 256 255 256 256 256 256 256 256 256 256 255 255 255 255 255 255 255 256 256 256 255 255 255 255 254 255 255 256 257 258 259 259 259 260 260 262 263 264 264 264 264 263 264 264 266 267 269 270 271 271 272 272 273 272 271 270 270 268 266 265 265 265 266 266 266 266 266 266 267 266 266 265 265 265 265 265 264 264 267
256 256 256 256 256 256 256 255 254 254 254 254 254 254 255 255 255 254 255 255 254 254 255 255 255 255 255 255 255 255 255 254 255 255 256 257 258 258 259 259 260 260 260 260 260 260 261 261 262 263 264 264 263 263 263 264 266 268 271 273 272 272 270 269 268 267 266 265 266 265 265 265 266 265 265 266 265 265 264 264 264 264 263 262 261 262 266
255 254 254 254 254 254 254 254 254 253 253 253 253 253 253 253 253 253 253 253 255 255 255 255 255 255 255 255 255 255 255 256 256 256 257 258 258 258 258 258 257 256 256 257 258 260 261 261 261 260 260 260 260 261 262 263 265 267 269 270 271 270 268 267 267 266 266 265 265 265 265 265 265 265 265 265 264 264 263 263 263 262 262 261 261 263 265
254 253 253 253 253 253 252 253 253 253 253 252 252 252 252 253 253 253 254 254 254 254 255 255 255 254 255 255 256 256 256 257 257 258 257 257 257 257 256 256 256 255 256 255 257 259 258 258 259 259 259 259 259 260 262 263 264 266 268 269 269 268 267 266 266 265 264 265 265 265 264 263 264 263 263 263 263 263 263 262 261 261 260 260 261 262 264
253 252 252 252 252 252 252 252 253 252 252 251 252 252 252 252 253 253 253 254 254 255 255 255 255 256 256 256 256 255 256 257 257 256 256 255 255 255 255 254 254 255 254 254 256 257 257 258 259 259 259 259 260 261 262 264 264 266 267 268 267 266 266 265 264 264 264 264 263 263 263 263 262 262 262 262 262 262 261 260 260 259 259 259 260 261 260
252 252 252 252 252 252 252 252 252 252 252 251 251 251 252 253 253 254 254 254 255 256 256 256 256 255 255 255 255 256 256 256 255 254 254 254 254 254 253 253 254 255 255 256 256 256 257 258 259 259 260 261 262 263 263 264 264 266 267 267 266 265 264 264 263 263 263 262 262 262 262 262 262 261 261 261 261 260 259 259 258 258 259 259 258 256 256
251 251 251 251 251 251 251 251 251 251 252 252 252 251 252 253 253 254 254 255 256 257 256 255 255 254 254 255 255 254 254 254 254 253 253 253 253 252 253 254 255 255 256 257 256 256 257 259 259 259 260 261 262 263 263 264 264 265 265 265 264 264 263 263 262 262 261 261 261 260 261 261 261 260 260 259 258 258 258 257 257 258 258 257 257 256 255
251 251 251 251 251 251 251 251 251 252 252 253 253 253 254 254 255 255 255 255 255 255 255 255 254 254 254 253 253 252 253 253 253 252 253 253 252 251 251 252 254 254 254 255 256 257 258 258 259 259 260 262 262 262 263 263 264 263 263 263 263 262 262 261 261 261 261 260 260 260 260 259 259 258 258 258 257 257 257 257 257 257 257 256 255 255 254
251 251 251 251 251 251 251 252 252 252 253 254 255 255 256 256 256 255 255 255 255 255 254 254 255 254 253 253 252 252 252 252 252 253 253 252 251 251 251 252 254 254 256 257 257 257 257 258 259 259 260 261 261 261 261 262 262 262 262 261 261 261 261 260 260 260 260 260 260 259 259 258 258 257 257 256 256 256 256 255 255 255 254 255 254 253 252
251 250 250 251 251 251 252 252 252 253 253 254 255 256 256 256 255 255 254 254 254 254 253 253 253 253 253 252 252 251 251 252 252 252 252 252 253 252 252 253 254 255 257 257 257 257 257 258 259 259 259 260 260 260 260 260 260 260 260 260 260 259 259 259 259 259 259 259 258 258 258 258 257 257 256 256 255 254 254 254 254 253 253 253 252 252 251
251 251 251 251 251 252 252 253 253 254 254 254 256 256 255 255 255 254 254 253 253 253 253 252 252 252 252 252 251 251 251 252 252 251 251 251 252 253 255 254 255 256 257 257 257 257 258 258 259 259 259 259 259 259 260 259 259 259 259 259 259 259 258 258 258 258 258 257 257 258 258 257 256 256 256 255 254 254 255 254 253 253 253 252 252 252 251
251 251 251 251 252 253 253 253 253 253 254 255 255 255 254 254 254 254 253 253 253 253 253 252 252 252 252 251 251 251 251 252 252 251 250 249 250 251 254 255 256 256 256 257 257 257 257 258 258 259 259 259 259 259 259 259 259 258 258 258 258 258 258 257 257 257 257 257 257 256 256 256 256 256 255 255 254 254 253 253 253 252 252 251 251 250 250
251 252 252 253 253 253 254 254 255 255 255 254 253 254 254 254 253 253 253 253 252 252 253 253 252 252 252 252 252 252 252 252 252 252 252 252 251 252 255 255 255 256 256 256 256 256 257 258 258 258 258 258 258 258 258 258 258 258 258 257 257 257 257 257 257 256 256 256 256 255 255 256 255 255 255 255 254 254 253 252 252 252 252 251 251 251 251
252 252 253 253 253 254 255 255 255 254 254 253 252 252 253 253 253 253 253 253 253 253 253 253 252 253 253 252 252 251 250 251 252 253 253 253 254 254 255 255 255 255 255 255 255 256 256 257 257 258 258 258 257 257 257 257 257 257 257 257 257 257 256 256 256 256 256 255 255 255 255 255 255 254 254 253 253 253 252 252 251 251 251 251 250 250 249
252 252 252 253 254 255 255 254 253 252 252 251 252 252 253 253 253 253 253 253 253 253 253 253 252 252 252 252 253 252 252 251 249 250 253 253 253 253 254 254 254 255 255 254 254 255 256 256 256 256 256 256 256 256 256 256 256 255 255 255 255 255 255 255 255 255 255 255 255 254 254 254 254 254 253 253 253 253 252 251 251 250 250 250 250 250 249
252 252 253 254 255 254 254 253 252 252 252 252 252 252 253 253 253 253 253 253 253 253 252 252 252 252 252 253 253 252 253 253 251 250 252 253 253 253 253 254 254 254 254 253 253 253 254 254 255 255 255 255 254 254 255 255 255 254 254 254 254 254 254 254 254 254 254 254 254 254 253 253 253 252 252 252 251 251 251 251 251 251 250 250 249 249 249
253 253 254 254 254 253 253 252 252 252 252 253 252 253 253 253 252 252 253 253 252 253 252 252 252 252 252 252 252 252 253 252 253 253 253 253 253 253 253 253 253 253 253 253 253 253 253 253 253 253 253 253 253 253 253 253 253 253 253 253 253 253 253 253 253 253 253 253 253 252 252 252 251 251 251 251 251 251 251 250 250 249 249 249 249 248 247
253 254 254 254 254 254 254 253 253 253 253 253 253 253 253 252 252 252 252 253 252 252 251 251 251 252 252 252 252 252 252 252 252 253 252 252 253 253 253 253 252 252 252 252 251 251 252 252 252 252 252 252 252 252 252 251 251 252 252 252 252 252 252 252 252 251 251 251 251 251 251 250 250 250 250 250 250 249 249 249 249 249 249 249 248 248 247
254 255 256 255 254 254 254 254 254 254 254 254 253 253 253 253 252 252 252 253 252 251 251 251 250 251 252 252 252 252 252 252 252 252 253 252 252 252 252 252 251 251 251 251 251 251 251 252 252 252 252 251 251 251 251 251 251 251 251 251 251 251 251 251 250 250 250 250 250 250 250 250 250 249 249 249 250 249 249 249 249 248 247 246 246 246 245
Wind_Speed
18 21 20 20 20 19 18 20 20 22 22 22 23 25 24 21 19 24 17 18 21 21 19 22 25 26 27 26 23 22 22 18 14 14 12 8 6 5 5 7 8 8 10 11 12 12 10 9 11 11 9 9 10 11 12 12 10 14 13 12 14 14 15 16 17 16 15 14 12 12 13 13 13 13 14 14 13 13 14 14 12 13 12 12 13 12 11
18 21 21 22 22 21 20 21 21 24 24 27 27 28 25 25 25 24 24 24 27 20 19 20 25 25 23 21 19 19 18 19 19 18 16 15 8 5 6 8 9 10 12 14 15 16 17 17 15 13 12 12 12 13 14 13 11 12 9 13 15 15 16 18 16 14 14 12 12 12 13 14 15 15 14 13 13 13 14 14 13 12 12 12 13 14 14
18 20 19 22 20 22 23 24 24 25 24 26 27 25 22 21 25 26 29 29 28 19 21 24 23 21 19 17 15 19 20 20 19 16 13 11 11 10 8 9 12 12 12 14 16 16 16 16 14 13 13 13 13 14 13 11 11 12 12 15 16 16 18 17 16 14 12 13 13 15 15 13 12 13 14 13 13 13 13 12 13 13 13 14 13 12 14
14 10 15 21 22 24 25 26 26 25 24 25 23 21 22 21 25 25 26 22 19 19 25 25 22 22 20 21 21 21 19 14 12 12 12 12 13 12 12 12 13 14 14 14 14 15 16 16 14 13 15 16 14 14 14 11 13 10 12 14 14 15 17 14 13 14 14 13 14 14 13 15 14 14 12 13 13 14 13 13 12 12 13 14 13 12 11
12 11 14 16 19 19 21 21 24 27 28 25 21 21 21 22 23 22 18 23 16 12 12 12 13 14 13 13 16 15 12 10 10 12 10 11 11 12 12 14 14 13 13 13 15 16 14 15 16 18 18 16 17 15 13 11 3 7 12 13 14 14 14 12 13 13 12 13 14 14 15 14 13 12 14 14 14 14 16 14 11 14 14 12 12 11 12
8 6 10 8 11 15 11 4 14 18 22 22 24 22 23 26 22 14 8 8 14 15 14 12 12 13 14 13 9 10 10 11 11 10 10 9 10 11 12 13 13 12 12 14 14 15 15 15 15 15 15 15 16 14 9 2 8 10 11 12 12 13 10 11 11 12 12 13 14 14 13 12 12 13 14 16 14 12 11 11 13 12 12 14 12 12 12
14 11 13 15 19 17 8 6 7 14 20 21 25 24 20 12 16 16 10 13 16 12 10 9 11 12 15 10 3 10 13 14 13 14 13 11 10 12 11 14 15 14 14 16 16 17 17 17 16 14 15 13 12 13 10 6 5 8 9 10 10 11 11 12 11 12 13 14 15 13 13 12 13 13 14 12 13 12 13 14 15 15 15 14 13 12 11
11 10 10 16 15 1 4 2 6 12 8 8 12 10 9 13 13 12 7 12 12 13 13 14 12 14 18 4 3 10 14 12 13 13 14 16 13 13 12 12 13 13 14 15 15 16 16 15 16 14 14 15 13 14 9 7 6 6 7 8 11 8 9 10 12 13 13 13 12 11 12 12 13 14 14 15 15 12 11 10 9 9 8 10 12 13 12
16 13 16 21 15 19 12 4 10 9 7 10 6 6 4 11 8 10 10 12 14 14 12 13 12 18 14 4 2 11 16 15 13 12 12 13 13 12 12 11 12 11 11 12 14 14 15 15 15 14 15 14 13 13 10 6 4 4 5 7 8 9 10 11 12 12 12 12 12 12 13 14 15 15 15 14 12 10 12 12 12 12 13 13 12 13 14
12 16 16 15 13 16 5 5 7 5 8 9 7 5 4 10 9 8 9 12 12 12 10 13 12 14 13 14 13 15 17 16 15 15 12 12 12 12 13 13 12 12 12 12 14 13 15 16 15 13 13 13 12 11 8 4 2 3 4 8 8 7 11 10 9 9 9 11 13 13 14 16 16 14 12 9 11 11 14 14 13 13 11 11 10 11 14
10 15 14 12 12 4 8 10 12 9 13 12 10 5 6 7 7 7 6 10 8 8 13 13 11 12 12 11 12 12 15 16 14 14 14 13 14 13 13 14 15 15 15 13 13 14 16 18 19 16 15 14 12 12 8 4 2 4 7 9 5 6 5 3 4 5 7 8 10 11 13 13 12 13 13 13 11 10 10 10 11 9 10 10 10 9 10
12 15 14 15 6 1 9 8 9 9 14 13 1 10 7 9 5 3 3 6 7 6 7 8 7 6 9 12 15 15 14 13 12 11 14 16 16 16 15 12 12 13 12 13 16 17 17 19 18 17 16 14 13 12 10 4 5 7 9 6 5 5 5 5 5 6 6 8 8 9 9 7 7 9 8 9 10 11 9 9 9 9 9 9 11 10 10
13 15 14 10 3 6 5 9 7 12 9 2 5 9 11 13 1 2 1 3 6 4 5 4 5 5 6 12 14 15 14 12 11 9 9 11 12 13 15 16 16 15 14 12 13 13 14 16 17 15 14 15 15 12 8 6 10 10 6 3 2 3 3 5 6 7 6 8 9 8 9 10 9 8 9 11 11 11 11 9 9 9 10 9 9 8 9
7 5 8 8 7 3 10 10 10 9 7 7 7 6 4 6 12 3 5 5 3 3 5 6 6 7 6 8 10 11 10 11 14 14 13 12 12 10 10 14 15 15 16 16 16 15 12 13 14 14 13 14 14 11 9 11 12 6 4 2 2 2 3 4 6 7 8 8 8 8 8 10 11 10 8 9 10 11 10 10 11 11 10 9 9 9 8
5 5 10 12 15 1 18 10 10 3 4 8 7 7 6 6 7 8 7 4 4 4 5 6 7 7 7 6 7 9 11 13 14 15 15 15 15 15 15 15 12 12 15 17 17 16 15 13 11 11 13 15 14 11 11 14 10 6 4 2 2 3 4 5 6 7 7 9 9 8 9 10 12 11 10 10 10 10 11 11 12 13 13 12 11 11 8
5 4 6 4 3 11 12 9 6 5 3 6 8 7 2 6 6 5 6 2 3 3 6 6 7 6 8 9 6 8 10 11 13 13 13 13 14 14 14 12 13 14 14 14 15 15 14 13 11 11 11 14 15 14 15 13 9 5 3 3 3 4 4 5 5 6 6 7 6 7 9 10 10 11 11 11 10 10 11 11 11 12 9 9 9 11 9
3 5 9 11 11 9 8 7 4 7 9 10 7 5 8 7 4 1 1 4 4 3 5 6 5 8 7 9 10 10 11 11 11 12 13 13 13 14 14 14 13 12 14 17 17 17 14 13 12 12 11 13 17 17 15 10 8 6 5 4 5 6 5 5 6 6 7 8 8 8 9 11 12 11 12 12 12 10 11 10 12 12 8 8 8 7 7
8 11 11 12 9 5 7 7 9 9 12 11 6 6 5 4 3 1 2 4 6 6 4 4 5 6 8 10 10 10 10 11 10 10 11 12 12 11 12 13 13 13 14 15 16 17 18 14 13 12 13 12 16 18 14 10 7 6 6 6 7 8 6 7 8 7 8 8 8 8 9 9 10 11 14 14 13 12 11 14 12 13 12 9 8 13 11
7 8 5 8 7 10 13 13 12 11 8 10 5 4 4 4 2 2 3 4 5 5 6 6 8 9 9 10 10 9 9 10 11 12 12 11 11 13 14 14 14 14 13 14 17 18 19 17 13 12 13 13 14 15 15 12 8 7 7 8 8 7 8 7 7 8 10 9 9 9 11 9 9 9 10 11 12 13 14 18 15 13 11 10 10 11 10
9 13 13 13 12 13 12 12 11 11 6 5 5 3 2 1 1 2 3 4 5 4 6 8 9 11 11 11 11 10 10 10 11 12 12 13 13 13 13 14 15 14 15 16 17 18 18 18 15 14 15 15 15 15 15 13 8 7 8 9 9 9 9 7 7 9 10 11 12 10 11 12 11 10 9 10 12 15 16 20 18 16 15 11 13 12 11
7 11 12 16 17 15 14 13 8 6 6 7 5 4 1 1 3 5 5 3 5 6 9 9 9 11 12 10 9 10 12 12 12 12 12 12 13 13 14 14 13 15 16 17 17 18 19 18 17 16 16 16 16 15 14 13 8 8 10 10 9 8 7 7 8 8 8 9 10 10 11 10 9 10 11 11 10 8 8 10 14 17 17 16 18 17 18
10 12 15 11 9 10 9 9 8 5 7 5 4 3 3 3 3 4 5 6 5 7 8 9 8 9 11 12 10 10 12 13 14 14 13 12 13 15 13 13 14 16 16 16 17 18 18 18 17 16 16 17 16 15 13 11 7 9 11 9 8 9 7 8 7 7 8 9 9 9 10 10 9 8 7 10 9 8 8 12 18 15 15 15 17 15 15
13 14 14 11 12 11 10 13 8 6 3 1 3 2 2 3 3 2 4 8 10 9 9 6 7 9 11 13 11 12 12 13 13 14 14 14 13 15 15 16 17 16 15 16 16 20 19 16 14 15 15 16 16 16 16 12 9 10 10 9 9 9 8 9 10 10 9 8 9 9 9 9 8 9 7 7 14 16 11 12 18 19 17 15 19 20 15
18 15 16 13 11 13 14 13 9 1 2 2 1 3 3 3 3 3 5 6 8 11 10 10 8 9 11 13 11 13 14 14 14 14 14 14 14 15 14 13 14 14 15 15 18 18 17 15 17 16 16 16 19 19 18 18 12 10 10 10 10 10 10 10 9 9 9 9 9 9 9 9 9 9 9 9 7 15 17 15 20 21 20 18 20 20 17
16 14 9 4 6 8 8 7 4 1 5 6 4 5 5 8 7 4 8 9 6 7 9 14 14 10 9 12 11 11 12 15 15 14 16 17 18 16 14 13 13 11 13 14 13 16 16 21 21 19 18 20 15 17 13 12 14 14 14 12 13 12 10 9 8 10 9 9 10 11 11 11 11 11 11 11 11 9 10 17 20 20 20 21 23 22 19
7 6 6 3 3 7 8 5 4 4 8 8 7 5 5 7 10 10 9 9 10 10 11 13 15 14 10 10 11 11 12 15 16 15 14 14 15 15 17 14 14 13 13 13 15 15 16 17 20 20 20 19 21 15 17 15 16 18 17 16 15 13 11 10 10 10 11 11 11 12 12 11 11 11 11 11 11 11 11 10 13 16 19 21 22 23 22
9 7 8 10 12 12 7 6 5 10 10 9 7 7 7 8 9 9 11 11 11 12 13 14 12 12 11 9 10 10 12 15 15 14 13 14 18 17 15 14 16 15 19 17 20 21 23 21 19 18 22 23 22 16 12 16 17 17 18 17 14 15 18 13 10 11 11 11 11 10 10 11 11 12 12 11 11 12 13 14 14 14 11 13 20 24 19
8 9 9 2 6 7 8 9 7 9 9 8 9 9 9 8 8 10 14 15 12 8 10 9 8 10 12 10 7 12 12 12 14 15 15 17 13 14 14 15 16 19 18 20 19 19 19 16 18 18 23 23 21 14 16 14 17 17 17 16 15 13 12 13 12 10 10 10 10 11 11 11 10 10 10 11 12 12 11 11 11 11 10 10 11 18 26
8 7 5 4 7 9 10 9 7 6 9 9 8 8 6 9 13 13 14 13 13 13 15 14 7 8 9 11 9 11 13 15 16 17 17 15 14 13 15 17 18 17 21 19 20 17 16 16 18 19 22 19 12 13 14 17 17 18 17 15 13 12 12 11 11 10 9 9 10 10 9 9 10 10 10 11 10 10 11 12 11 11 11 11 12 13 17
8 7 7 6 7 7 8 10 11 11 10 10 11 10 5 8 12 16 16 15 12 14 16 14 14 13 9 11 11 11 12 15 19 17 16 18 15 15 14 15 16 19 17 19 17 15 14 16 17 21 22 18 12 13 15 14 15 17 18 19 17 14 13 11 9 9 10 10 10 12 10 10 10 10 11 11 12 12 12 12 13 13 13 13 14 14 16
10 8 9 7 4 4 8 12 12 12 10 8 8 13 14 9 11 14 17 17 15 15 14 13 15 15 14 11 12 12 12 15 13 18 16 17 16 15 13 14 14 16 18 19 19 16 18 17 19 18 18 13 17 15 16 16 17 16 16 15 14 19 21 18 12 11 10 10 10 11 11 11 11 12 12 12 12 12 12 12 13 13 13 14 14 14 14
12 9 5 1 6 10 10 6 9 12 12 9 10 13 12 12 15 17 17 16 16 14 15 17 17 17 14 14 11 14 13 13 17 15 17 15 16 14 14 14 17 19 21 20 19 15 17 19 20 19 14 17 15 17 15 16 16 15 16 15 14 11 13 18 10 11 10 10 11 11 12 13 12 12 12 13 14 14 14 14 14 14 14 14 14 13 14
11 15 9 9 14 15 14 10 5 14 15 16 15 11 10 10 11 13 15 15 15 17 14 15 15 15 14 14 15 14 14 16 16 17 15 16 15 14 13 15 14 16 16 17 16 19 18 20 19 17 15 15 16 15 16 16 16 15 15 14 14 13 11 11 13 10 10 11 11 13 12 12 12 13 14 13 13 12 12 13 13 13 13 12 12 11 10
4 4 8 9 6 12 16 21 16 13 14 14 14 12 12 13 12 14 14 14 15 16 15 15 14 16 14 16 13 16 15 15 15 12 13 14 17 15 15 12 15 17 19 17 19 13 12 12 17 17 20 19 18 16 14 15 15 15 16 15 13 11 10 9 11 10 10 11 11 12 12 12 12 13 12 12 12 12 12 13 12 12 12 11 10 9 12
7 9 10 10 10 11 12 14 16 17 17 20 22 19 14 13 14 16 17 17 15 17 16 16 15 14 14 14 15 14 15 14 17 18 16 15 14 14 15 19 18 18 19 19 16 17 16 20 17 17 15 16 16 17 17 18 17 16 16 14 13 11 9 9 10 12 12 11 11 11 12 12 11 10 11 12 12 11 11 11 12 12 12 12 10 9 12
8 10 9 10 10 10 12 13 14 15 16 17 18 19 20 18 18 18 18 16 13 14 16 16 15 16 14 15 13 16 15 16 14 17 17 15 13 14 15 17 18 21 18 16 11 14 14 11 17 24 20 18 17 17 17 16 16 15 16 14 12 9 8 9 9 9 8 9 10 10 10 10 10 10 11 11 11 12 13 13 13 12 12 12 12 12 11
6 10 11 12 11 11 13 13 12 14 15 16 17 19 21 20 18 18 16 16 14 15 14 15 15 15 16 15 14 14 16 15 15 13 13 12 14 14 17 17 17 16 16 12 12 11 14 16 20 27 21 15 15 16 17 22 15 14 13 12 9 8 8 8 8 9 9 9 10 10 10 10 10 10 10 11 12 12 12 12 11 11 11 11 11 12 10
9 10 12 12 13 13 13 13 12 14 17 21 18 16 19 20 18 17 17 16 15 14 14 13 14 14 14 14 15 15 15 15 13 12 13 15 15 17 15 14 13 12 11 12 14 14 13 18 26 20 14 13 13 14 16 22 22 16 12 9 8 8 8 8 8 8 9 9 9 10 11 11 11 11 10 10 11 12 11 11 11 12 11 11 11 10 7
11 9 9 10 11 12 13 13 11 12 13 18 19 18 16 17 18 18 17 17 15 15 13 13 12 15 15 17 15 15 13 11 12 14 14 16 14 13 14 14 15 13 14 14 15 14 15 16 16 15 13 13 14 14 16 18 19 12 9 6 6 7 7 7 8 8 7 8 9 9 9 9 10 10 10 10 10 10 9 11 11 10 11 11 10 9 8
11 10 11 11 11 11 12 13 12 13 13 13 15 18 17 16 16 16 16 16 14 14 13 14 14 13 14 14 15 13 13 14 15 14 16 14 14 15 15 14 11 10 12 18 15 13 18 25 19 13 12 12 12 9 8 8 6 2 4 5 6 6 7 7 8 9 9 9 10 10 10 10 10 9 9 9 10 10 9 10 11 10 10 9 9 8 8
11 12 11 11 12 11 12 13 14 13 13 14 14 15 15 16 16 15 16 15 14 12 14 13 13 13 15 14 14 15 15 15 14 15 13 12 12 12 11 13 12 12 12 12 13 15 18 15 12 11 10 9 7 5 3 6 6 5 6 6 7 7 8 8 8 9 10 10 10 10 10 10 10 10 9 10 10 10 10 11 10 10 10 11 10 9 8
12 11 12 13 12 12 13 13 13 14 14 13 14 15 14 13 14 15 15 14 14 14 12 12 15 16 15 15 14 15 15 14 14 12 10 10 11 11 12 12 13 12 18 20 16 13 10 10 9 7 7 5 6 10 9 7 7 7 7 7 7 7 8 9 9 9 8 8 9 9 9 10 11 10 10 10 10 10 11 11 11 11 9 9 10 10 11
13 13 13 13 13 13 13 13 13 15 15 15 13 11 12 13 12 13 13 14 14 13 13 13 13 14 14 14 14 15 13 12 11 10 10 9 11 10 10 12 13 12 21 14 12 9 8 7 7 6 9 9 8 12 12 8 7 8 8 8 8 8 8 8 8 9 9 9 9 9 10 10 10 11 11 11 12 12 12 10 12 13 13 11 11 8 7
13 12 12 13 13 14 14 13 13 13 12 11 11 12 12 11 11 13 13 14 13 13 13 12 12 12 12 13 12 11 10 9 7 8 8 10 11 9 10 10 10 13 18 11 8 8 8 7 7 9 13 14 14 13 9 7 8 8 8 8 8 8 9 9 8 8 9 8 9 9 9 9 10 10 12 11 9 8 10 10 11 7 7 7 7 8 10
12 12 12 13 15 14 13 11 11 12 11 12 11 11 11 11 11 11 12 12 13 12 12 11 11 11 11 10 10 10 9 8 6 7 8 9 9 11 11 13 12 10 12 15 9 9 8 8 10 13 12 14 14 13 9 8 8 8 8 8 8 8 8 9 9 9 9 9 9 8 8 9 10 11 12 12 11 8 9 9 8 7 9 9 8 9 9
12 12 12 14 13 12 12 13 12 10 11 11 11 10 9 10 10 11 10 11 11 10 9 10 10 11 11 11 10 10 9 8 6 6 6 6 7 9 11 12 10 11 16 16 9 9 8 14 16 14 15 15 13 10 8 8 8 8 8 9 9 9 9 8 9 9 9 9 9 10 10 11 11 8 7 7 9 10 10 10 8 6 5 6 6 7 7
12 13 14 14 14 14 13 10 9 10 9 10 9 9 10 10 10 9 9 11 10 10 8 8 9 9 9 10 9 9 9 9 7 5 7 8 8 9 11 14 13 16 13 10 9 9 10 10 13 16 17 17 14 9 9 9 9 8 9 8 8 9 8 8 8 9 9 10 10 11 11 11 9 8 8 9 9 9 9 10 8 9 8 7 8 7 7
14 15 15 16 16 12 10 9 8 8 8 9 9 9 9 9 10 10 9 8 10 9 7 7 8 8 9 9 9 8 7 8 9 9 9 9 8 8 8 9 12 17 15 12 14 13 20 19 18 18 18 16 11 9 10 10 9 9 9 9 9 9 9 10 10 9 9 10 10 8 7 7 7 8 8 13 11 8 8 9 9 9 7 7 7 6 7
17 14 12 12 8 9 9 8 8 8 7 8 8 7 8 9 9 8 8 9 10 8 7 8 9 8 8 9 8 7 7 6 5 5 9 8 8 8 9 10 15 15 11 8 10 9 17 21 20 21 21 16 11 10 10 10 11 12 11 11 11 10 9 9 8 7 8 9 9 9 11 10 9 13 12 9 10 10 8 8 7 7 7 7 7 5 6
11 10 7 6 7 7 8 7 6 6 6 7 7 7 7 7 7 7 7 7 8 8 6 6 6 7 7 7 7 7 7 8 8 7 7 8 9 9 9 9 9 13 12 9 9 8 12 17 18 16 12 10 11 11 12 11 8 8 7 9 10 10 10 9 9 11 10 10 11 9 9 11 13 11 9 9 9 8 7 7 7 7 10 7 6 6 5
9 7 6 8 7 6 7 6 6 6 6 6 6 6 6 6 6 7 7 8 7 8 7 7 6 7 8 8 7 7 8 7 7 8 7 8 8 9 10 9 10 10 10 10 9 9 9 9 9 9 10 10 10 11 10 10 9 9 8 10 11 10 8 8 10 12 13 9 12 10 9 10 10 11 10 8 8 7 6 6 6 6 6 6 6 5 5
10 7 6 7 6 5 5 5 5 5 5 5 5 5 5 6 5 5 6 10 7 7 7 7 8 8 7 7 8 8 7 8 8 7 7 8 8 7 9 10 9 9 10 9 9 9 8 8 9 10 10 9 9 10 10 11 10 10 8 8 7 8 9 8 8 12 11 10 11 11 10 7 8 10 9 9 7 7 7 6 6 6 6 5 5 5 6
Wind_Direction
241 247 254 253 256 248 249 244 248 248 246 247 247 247 247 248 244 257 256 247 247 247 244 250 253 255 258 261 268 273 279 288 282 275 273 272 279 314 313 286 279 267 270 276 278 278 271 276 281 277 271 257 246 241 238 235 215 214 205 200 208 209 209 212 214 210 207 207 203 196 192 191 191 189 188 186 181 178 180 181 179 181 178 177 173 174 170
243 244 243 246 249 254 250 246 245 245 248 248 247 249 247 245 250 253 259 257 256 254 252 245 251 254 258 264 269 275 278 275 277 279 288 299 309 294 277 274 281 295 303 299 293 292 294 291 283 270 257 252 247 244 243 232 215 218 185 203 206 208 211 215 214 208 205 199 195 191 190 192 191 188 185 181 179 180 181 180 175 172 174 178 179 176 171
245 246 246 250 246 251 249 248 245 245 245 249 247 252 257 259 258 255 255 256 258 254 259 258 256 262 264 266 266 267 271 276 286 308 333 350 349 338 324 326 327 321 308 302 300 297 289 282 270 259 255 255 259 257 251 238 214 210 190 209 208 207 210 213 210 203 197 195 189 193 195 191 188 183 183 179 179 178 177 175 174 173 173 175 180 181 176
256 239 244 246 247 246 246 249 246 247 244 246 244 243 241 243 253 254 256 257 259 254 248 255 258 262 267 273 279 280 288 319 10 29 20 16 8 2 360 357 357 353 347 336 322 307 296 286 275 268 267 265 261 253 247 235 223 198 198 210 209 213 216 209 203 199 196 192 190 195 188 191 186 185 177 175 178 178 175 175 176 169 176 181 177 175 174
270 261 255 261 256 253 244 240 241 241 242 243 250 247 249 246 252 257 254 250 267 315 357 352 334 319 305 295 290 313 7 26 32 26 17 10 5 356 355 353 350 348 347 340 335 329 320 312 303 294 286 284 279 267 254 244 199 187 205 208 210 215 213 205 204 197 192 190 194 190 192 188 181 175 177 178 179 176 182 179 164 175 181 171 178 173 173
289 310 295 304 288 244 257 239 238 242 249 249 249 250 248 246 242 273 293 350 32 25 15 17 344 339 325 324 6 70 41 11 8 9 10 358 353 348 345 346 340 334 338 338 333 327 320 313 310 304 300 291 285 284 284 198 179 206 202 210 210 214 208 204 199 192 192 192 193 193 187 181 175 177 178 184 182 178 166 163 174 174 173 177 172 175 175
280 284 286 282 256 265 264 216 214 226 243 251 256 260 269 338 12 7 24 32 30 18 8 1 342 323 313 319 78 54 37 18 3 350 349 353 343 339 335 335 335 332 331 330 329 329 328 322 315 316 314 306 295 290 282 248 209 198 207 207 210 210 203 201 191 192 192 193 193 187 181 177 176 181 182 178 174 176 174 176 176 179 177 177 177 172 172
273 258 254 256 260 323 14 41 24 4 21 6 349 300 28 20 14 1 1 40 15 14 357 351 345 340 315 270 129 52 21 22 359 349 339 336 334 333 330 327 325 326 328 326 323 320 317 318 316 319 319 318 312 293 289 256 231 203 203 208 215 207 204 198 197 197 192 192 187 179 176 175 178 182 182 181 178 173 170 173 175 167 171 171 170 172 172
263 264 259 261 288 279 253 279 10 5 1 333 334 305 81 22 354 2 357 12 360 6 359 344 346 342 336 329 293 23 6 353 346 341 329 321 325 322 322 323 318 317 317 320 320 319 320 320 320 323 325 321 312 304 300 288 253 216 194 218 221 210 210 203 202 195 190 186 182 178 176 177 184 183 181 181 176 167 169 174 173 177 177 177 175 173 173
232 257 266 269 263 260 359 347 285 330 315 299 270 251 181 43 18 355 11 0 353 344 346 349 347 340 354 347 332 344 343 341 334 330 328 324 324 329 322 323 322 325 326 325 326 330 326 325 325 328 326 319 313 307 303 308 257 238 209 227 221 212 216 209 203 196 190 184 182 179 179 186 186 185 179 173 173 171 175 174 179 181 172 172 178 178 176
279 277 278 277 284 294 70 340 322 322 322 298 286 199 201 68 28 336 32 353 349 330 344 334 353 356 346 312 313 325 330 324 331 327 326 332 328 329 331 330 331 332 331 329 328 331 334 333 332 334 331 324 319 308 306 302 262 243 240 240 230 229 237 204 192 187 187 187 187 184 188 190 181 176 176 177 170 166 175 173 175 167 171 173 175 180 185
243 250 251 256 255 236 9 334 328 334 313 310 281 236 172 31 42 300 29 331 315 307 308 316 347 354 316 315 312 316 314 314 319 330 330 333 334 330 332 334 328 324 323 332 337 339 337 331 329 333 333 329 318 309 309 302 277 258 249 236 215 203 187 172 170 174 181 185 184 182 183 171 172 177 168 158 164 170 170 168 165 168 171 173 177 182 177
285 285 282 291 288 119 36 352 334 336 314 330 318 289 343 331 310 224 258 257 280 256 275 286 316 280 251 273 285 298 308 318 324 330 327 320 325 327 329 330 330 326 328 331 329 328 328 327 329 329 333 331 320 317 318 311 281 274 289 274 235 210 166 164 170 174 171 180 178 176 169 170 166 166 170 170 165 169 166 164 160 163 172 172 173 177 177
262 275 278 267 304 182 32 353 24 324 28 359 294 296 288 287 296 254 262 265 262 262 279 256 246 279 280 271 288 305 317 325 319 321 322 321 317 318 318 318 324 324 321 324 324 326 324 325 325 327 331 326 315 314 318 297 283 309 296 262 214 177 184 184 180 175 175 171 167 166 163 160 166 173 171 166 169 168 166 163 163 165 167 170 173 172 170
292 260 268 268 265 242 5 337 353 73 67 262 263 284 242 232 252 276 283 254 255 237 254 257 268 282 285 284 294 305 316 316 315 315 320 320 320 321 324 322 319 319 318 320 322 321 324 325 324 323 327 320 313 309 304 291 299 296 266 236 194 188 185 182 181 179 176 170 167 163 169 172 169 169 164 163 166 168 166 165 168 169 171 171 170 173 165
259 260 243 237 354 319 329 0 296 317 267 262 286 273 246 230 228 255 277 238 226 236 255 284 286 265 282 294 295 298 297 301 304 306 309 313 316 315 313 313 316 320 315 312 315 316 318 319 319 319 320 312 308 304 294 291 297 283 262 234 201 200 201 191 178 175 168 170 167 169 170 167 171 166 168 168 167 174 172 170 171 172 175 167 162 172 165
290 235 270 278 293 292 292 273 246 276 298 310 278 239 257 278 276 264 278 287 285 252 259 265 273 286 286 292 300 300 295 298 301 306 311 312 313 311 311 316 320 318 318 317 316 313 313 316 317 312 307 300 297 293 290 288 275 259 242 222 210 209 204 191 181 173 164 169 169 171 175 173 174 173 169 168 170 178 175 179 180 172 161 152 163 144 146
241 256 252 274 280 278 279 279 285 299 301 296 262 237 237 246 225 253 205 261 276 284 274 282 277 276 287 294 297 298 303 303 303 300 303 307 306 305 308 311 314 315 313 311 311 310 311 314 312 309 303 296 289 287 290 288 263 243 224 220 227 222 201 187 183 170 173 172 170 174 179 188 191 185 177 177 177 178 183 177 177 175 156 163 161 176 173
288 278 262 257 268 278 279 282 290 292 275 263 250 213 212 210 222 243 273 264 276 282 293 282 286 294 297 295 297 301 305 306 306 308 306 302 305 312 312 309 314 315 314 310 310 309 306 308 308 302 298 293 286 287 290 286 264 233 228 228 229 220 210 202 184 177 180 182 179 178 182 187 194 193 190 188 184 185 176 159 177 179 175 166 168 179 170
235 259 266 278 276 266 275 282 285 285 268 247 250 225 192 167 227 257 274 297 294 295 301 300 307 304 303 302 302 307 306 303 305 304 304 306 309 308 307 309 312 311 310 308 307 308 305 305 307 303 298 293 291 292 292 289 264 239 237 233 230 226 213 199 195 191 193 185 180 185 189 188 188 191 199 199 197 196 184 182 183 188 183 171 174 172 168
260 276 280 272 273 281 277 274 264 238 219 220 236 244 240 351 329 305 297 291 295 311 292 305 305 302 297 300 305 305 306 303 300 299 300 303 303 303 305 305 309 305 305 304 303 304 303 302 303 302 297 295 294 292 288 285 261 241 246 241 237 235 217 202 205 198 196 185 190 189 192 195 203 196 188 195 209 228 232 210 199 189 182 187 187 185 179
254 251 261 267 285 282 280 277 274 227 220 192 213 260 291 289 273 278 284 294 296 289 291 295 297 287 292 299 305 301 295 293 294 296 298 300 301 298 295 300 301 298 297 302 306 303 297 298 299 298 298 300 301 301 298 285 256 244 249 244 234 233 213 211 209 196 201 195 192 189 190 193 195 201 208 211 215 217 219 218 226 228 199 191 187 178 184
249 247 250 250 255 264 262 274 271 205 217 149 250 230 233 267 258 265 301 293 294 290 285 281 284 287 288 291 298 293 285 283 286 288 293 295 293 292 296 299 297 299 306 310 306 300 295 296 294 296 297 297 297 298 300 292 263 250 246 242 238 233 213 213 207 201 201 195 192 191 190 189 190 195 200 214 218 220 220 212 212 215 206 206 195 189 181
263 268 267 268 267 266 273 272 278 254 138 95 350 325 308 286 283 303 290 279 284 291 293 288 275 277 284 284 289 286 287 285 287 291 293 290 286 287 286 282 288 300 304 301 298 297 298 298 296 296 294 290 288 287 289 294 291 264 247 240 243 236 219 217 205 200 201 196 188 186 192 187 188 186 191 194 208 216 216 209 203 204 206 199 191 186 184
258 261 278 263 250 263 262 275 316 15 91 37 7 330 324 316 311 307 295 295 282 276 288 290 290 279 272 277 276 280 289 292 292 294 295 293 292 291 289 291 293 291 289 292 290 291 292 292 294 295 294 287 280 281 284 294 296 282 265 250 247 248 233 213 204 198 196 195 193 192 189 186 188 185 187 188 189 185 201 205 200 198 198 197 190 188 178
282 302 309 294 292 266 271 303 283 64 1 358 341 322 315 315 307 308 295 290 292 289 279 276 281 285 278 279 285 289 289 287 293 296 293 292 293 294 296 299 301 302 293 284 279 272 273 278 285 290 287 284 282 282 293 297 294 285 274 262 250 249 239 213 201 198 201 200 197 199 195 190 187 185 190 188 184 178 169 172 190 200 202 196 189 183 180
55 10 357 315 282 276 68 51 323 332 330 332 318 312 314 310 308 300 294 287 278 277 273 272 272 280 287 282 287 284 283 291 295 289 286 286 286 289 296 302 302 299 297 293 289 285 285 287 285 283 281 280 281 291 297 290 282 277 274 267 261 253 243 225 204 207 202 199 200 196 192 190 188 186 186 184 179 182 180 180 179 180 176 182 183 175 169
46 30 31 28 294 327 306 324 329 314 311 311 321 316 312 307 300 300 297 297 294 280 268 261 273 286 288 293 297 295 295 288 284 286 286 283 285 293 297 299 298 296 290 285 282 285 288 288 284 279 277 275 280 291 284 274 273 272 270 264 257 253 246 224 214 211 201 199 196 194 193 192 186 184 180 178 182 184 184 182 178 168 165 164 163 170 167
18 8 8 306 271 280 298 304 301 298 304 309 304 297 311 318 307 300 293 290 294 301 297 302 297 279 282 292 303 296 293 290 288 286 285 287 291 294 295 295 292 287 284 281 280 282 283 279 275 275 273 276 286 288 286 289 287 283 281 276 267 257 247 231 216 210 202 195 195 194 188 179 177 180 181 183 180 180 179 180 173 168 159 150 146 159 161
346 339 317 292 292 303 316 320 315 312 308 305 308 302 306 311 303 298 296 298 303 300 298 303 302 296 297 294 291 290 288 288 289 290 291 290 291 291 291 289 287 282 277 275 274 281 279 277 275 275 276 286 285 269 269 267 267 268 265 263 261 253 249 235 214 206 198 193 190 180 179 178 181 180 181 180 180 179 177 174 169 163 160 161 160 160 157
325 319 297 285 305 334 324 306 305 294 293 296 301 302 303 298 280 287 293 300 301 295 296 297 297 298 301 297 295 291 286 284 282 285 285 287 287 286 284 283 283 287 288 287 287 283 278 275 273 270 278 281 277 275 274 273 274 274 272 262 252 248 244 235 210 200 195 185 178 179 181 179 181 181 181 178 176 178 175 171 167 165 164 163 164 161 160
323 319 287 5 352 318 305 295 292 295 297 301 301 296 299 306 303 299 299 299 297 297 299 299 297 299 298 300 295 293 288 284 284 281 283 283 283 279 278 273 268 270 275 281 284 281 279 278 275 275 277 274 273 272 270 271 270 268 265 265 260 254 244 232 209 196 185 186 180 182 182 178 182 181 179 180 180 178 172 169 169 168 167 165 166 163 163
346 342 344 343 332 326 311 302 294 302 308 305 297 291 292 289 289 289 291 295 297 297 295 291 293 295 298 297 294 292 289 288 283 283 282 283 281 280 276 274 270 270 273 277 279 279 276 276 277 282 279 278 276 274 272 268 266 261 261 256 256 250 239 222 203 188 183 182 186 185 184 181 182 179 183 180 176 172 170 168 165 164 163 162 156 158 160
321 274 282 300 296 298 308 307 309 301 295 290 285 291 296 299 295 291 290 291 287 287 290 293 294 296 295 293 289 292 293 292 290 287 282 281 284 284 281 276 284 282 277 275 278 281 289 290 293 293 290 287 283 282 280 277 268 261 255 254 248 243 228 215 197 185 183 188 188 182 180 179 180 180 177 174 171 169 166 164 160 156 149 145 147 146 161
300 289 286 283 286 281 283 285 294 299 303 303 305 305 299 294 294 292 293 292 291 293 295 294 291 290 290 289 289 288 287 280 285 289 289 286 285 292 299 293 289 293 295 294 293 290 285 282 280 287 297 301 301 295 291 285 284 283 281 267 252 235 218 193 190 185 186 186 175 176 178 180 181 173 168 165 163 159 157 155 154 150 146 144 143 154 157
301 295 290 285 282 282 281 281 283 284 286 288 290 294 297 299 299 296 295 291 291 290 291 290 290 290 287 288 287 289 287 287 284 285 287 295 302 301 297 300 301 295 289 286 279 281 287 299 307 303 298 294 291 286 281 280 276 271 265 261 251 230 201 190 186 177 175 168 174 175 175 169 161 160 160 157 154 154 155 154 155 152 152 150 152 156 156
287 290 292 290 286 284 281 280 281 285 285 286 288 293 293 294 293 292 291 290 290 287 285 287 287 288 288 289 287 288 288 287 286 288 297 306 307 304 300 296 293 291 294 291 298 304 302 294 290 290 290 283 281 276 277 271 268 263 259 249 230 203 182 173 169 164 166 165 163 161 154 153 154 156 155 155 156 156 153 152 148 146 147 151 155 158 152
293 289 288 288 290 289 284 282 283 282 285 284 282 281 286 291 293 292 290 289 286 284 281 280 283 288 293 295 292 288 285 284 288 300 308 308 306 301 298 295 292 298 294 290 300 300 294 291 289 288 285 280 275 274 272 271 267 264 251 233 200 181 175 166 163 158 158 156 155 151 154 155 152 152 150 150 149 150 149 146 144 145 145 152 158 152 131
297 289 282 284 286 286 288 288 286 282 284 287 289 287 285 286 287 288 288 288 287 287 289 295 300 300 297 296 291 289 293 309 316 313 309 304 301 298 292 289 287 286 285 290 294 293 290 288 285 286 281 280 278 277 272 269 263 250 234 189 174 157 158 149 149 142 141 140 141 143 142 143 143 144 143 144 141 140 141 140 141 141 146 149 145 130 124
297 299 298 301 297 297 295 294 293 289 285 281 286 291 293 292 290 290 290 292 298 308 309 307 304 299 301 302 308 315 319 317 313 309 303 301 301 299 297 290 287 287 294 298 297 290 291 290 290 290 290 291 288 283 282 278 254 151 131 121 127 121 127 128 128 129 131 133 130 131 132 135 136 137 134 131 134 134 135 137 137 137 136 132 131 124 120
298 304 304 302 300 300 298 298 298 293 292 290 288 286 288 290 295 301 306 311 315 315 308 303 306 308 313 319 319 313 311 310 308 304 303 306 307 308 308 305 311 314 304 302 300 300 299 297 292 292 290 298 294 322 327 29 49 68 81 89 101 110 117 120 123 127 131 134 134 138 135 133 128 127 127 130 132 133 137 138 141 142 141 141 135 129 124
306 305 305 304 302 301 299 297 295 297 294 293 293 295 296 306 310 309 313 314 313 311 314 319 319 317 319 318 312 309 308 307 306 307 317 314 308 313 311 308 315 311 311 311 310 307 300 302 298 297 306 339 4 28 38 41 55 65 79 81 89 94 105 108 112 112 114 117 120 122 123 127 129 127 128 128 130 135 132 126 123 122 115 128 129 124 119
312 311 308 306 301 301 300 300 298 296 295 296 298 304 315 314 312 316 315 318 318 324 326 321 325 325 321 317 316 315 313 310 312 323 320 308 307 300 303 308 314 313 314 314 312 310 315 311 330 347 22 35 37 40 43 48 52 63 72 78 85 89 92 98 105 109 114 117 119 122 128 130 129 131 130 132 131 114 96 113 122 115 106 109 113 114 117
309 307 304 302 301 299 299 298 293 293 293 301 316 319 318 321 319 319 324 323 328 329 327 330 327 326 327 325 323 322 321 320 330 336 325 325 325 321 319 320 318 321 326 330 328 338 335 346 352 24 34 44 45 48 49 53 58 64 68 76 83 87 93 96 96 100 104 110 117 124 126 123 126 128 129 127 111 110 127 115 84 96 111 109 107 111 107
306 306 304 300 299 301 301 301 302 304 309 314 318 320 324 321 323 328 328 329 329 329 331 328 327 330 329 331 328 323 319 317 326 328 331 333 331 331 335 331 331 336 342 348 349 347 351 359 18 29 41 45 49 50 54 53 59 65 70 75 78 83 86 91 95 96 101 102 105 107 112 118 124 124 123 124 124 105 124 128 122 113 111 112 114 111 119
306 304 302 303 303 300 300 301 303 310 318 322 321 322 325 326 331 330 328 325 328 326 326 326 325 326 330 329 328 323 321 319 316 324 329 323 321 316 325 335 338 341 350 356 359 356 358 7 24 34 42 45 47 49 51 53 57 63 71 75 78 81 84 89 93 100 101 106 109 111 114 118 115 96 78 93 118 114 113 115 108 99 103 106 108 117 115
309 308 307 306 305 304 308 321 329 326 326 331 331 328 333 334 332 330 322 323 322 323 323 326 327 329 331 333 334 336 337 335 326 344 350 340 334 333 338 343 350 350 354 356 0 12 18 21 29 39 46 49 49 52 50 52 53 60 61 67 70 77 77 80 85 90 95 100 102 101 100 104 97 88 108 109 103 102 105 115 105 97 113 121 119 119 120
313 309 304 306 309 318 338 337 335 341 342 339 330 326 325 328 328 325 322 323 326 327 334 337 335 335 335 340 342 345 340 335 333 338 353 344 339 337 344 357 3 9 9 4 5 9 23 39 44 47 48 51 46 54 55 58 58 62 64 68 69 73 76 86 83 83 87 92 91 72 73 78 84 79 96 89 77 102 100 115 124 117 104 109 104 117 131
318 308 300 303 325 343 347 349 352 346 342 331 334 328 330 327 328 326 330 337 339 343 348 344 343 340 342 343 348 343 346 343 352 322 330 342 343 348 350 353 4 11 11 10 22 20 27 38 44 57 61 59 57 58 61 67 71 73 68 72 71 68 71 73 66 54 73 75 88 98 90 92 88 75 72 95 87 93 109 113 118 124 129 125 123 124 126
309 313 313 353 354 350 360 350 352 344 334 334 339 334 330 334 336 340 345 346 350 346 344 342 344 344 343 343 345 346 346 350 351 346 345 348 354 356 355 358 356 4 12 18 18 17 15 29 38 35 37 48 56 57 62 55 36 36 33 63 72 77 70 69 78 79 86 93 83 95 93 96 87 96 103 100 97 100 107 108 110 110 115 118 121 129 130
319 325 355 3 349 353 347 347 339 339 342 340 337 339 339 345 344 344 346 355 350 350 346 343 343 349 348 348 345 346 348 352 352 357 354 354 357 3 5 6 2 9 11 16 20 19 22 27 28 32 39 48 53 57 53 45 37 41 46 57 50 40 39 66 40 48 43 51 63 69 91 75 86 94 77 101 105 106 108 113 116 121 118 120 120 124 125
328 335 14 1 345 349 341 341 346 356 351 346 338 339 344 352 338 334 353 4 0 353 348 344 346 350 353 347 346 347 347 352 354 355 359 2 5 6 5 10 14 12 14 18 16 17 17 19 25 34 40 49 51 57 53 53 58 61 46 44 52 53 50 47 52 47 42 68 70 66 82 79 76 88 75 78 108 114 115 115 113 109 99 87 104 116 100